Home > Time Zones > World Clock > Weather > Oman > Muscat > Past weeks

Flag for Oman Weather past 2 weeks in Muscat, Oman

Now
81 °F

Clear.


Feels Like: 85 °F
Forecast: 83 / 89 °F
Wind: 5 mph from Southwest

Location: Fujairah

Current Time: Oct 22, 2014 at 2:06:52 AM

Latest Report: Oct 22, 2014 at 1:00 AM


Visibility: 4 mi

Pressure: 29.92 "Hg

Humidity: 79%

Dew point: 73 °F

Location of MuscatLocation

Historic Weather in Muscat — Graph

°F

Muscat temperature yesterday

Maximum temperature yesterday: 90 °F (at 2:00 PM)
Minimum temperature yesterday: 79 °F (at 4:00 AM)
Average temperature yesterday: 84 °F

Past Weeks' High & Low Weather Summary

 TemperatureHumidityPressure
High104 °F (Oct 18, 2:00 PM)89% (Oct 8, 2:00 AM)30.01 "Hg (Oct 8, 2:00 AM)
Low79 °F (Oct 14, 5:00 AM)13% (Oct 18, 11:00 AM)29.71 "Hg (Oct 8, 2:00 AM)
Average88 °F58%29.87 "Hg
* Reported Oct 7 1:00 AM — Oct 22 1:00 AM, Muscat, Weather by CustomWeather, © 2014

Note: Actual official high and low records may vary slightly from our data, if they occured in-between our weather recording intervals... More about our weather records

Advertising

Muscat weather history for previous 24 hours

 ConditionsComfort  
Time TempWeatherWind HumidityBarometerVisibility
1:00 AM
Oct 22
81 °FClear.5 mph79%29.92 "Hg4 mi
12:00 AM82 °FClear.1 mph79%29.95 "Hg4 mi
11:00 PM
Oct 21
82 °FClear.3 mph79%29.95 "Hg4 mi
10:00 PM84 °FClear.2 mph74%29.95 "Hg4 mi
9:00 PM84 °FClear.3 mph74%29.95 "Hg4 mi
8:00 PM86 °FClear.3 mph70%29.95 "Hg5 mi
7:00 PM86 °FClear.5 mph75%29.95 "Hg5 mi
6:00 PM86 °FPassing clouds.3 mph70%29.92 "Hg5 mi
5:00 PM86 °FPassing clouds.7 mph70%29.92 "Hg4 mi
4:00 PM88 °FScattered clouds.6 mph66%29.92 "Hg4 mi
3:00 PM88 °FScattered clouds.9 mph66%29.92 "Hg4 mi
2:00 PM90 °FScattered clouds.9 mph63%29.92 "Hg5 mi
1:00 PM88 °FPassing clouds.9 mph66%29.95 "Hg5 mi
12:00 PM88 °FPassing clouds.9 mph62%29.98 "Hg5 mi
11:00 AM88 °FPassing clouds.9 mph66%29.98 "Hg5 mi
10:00 AM88 °FPassing clouds.7 mph66%30.01 "Hg5 mi
9:00 AM88 °FPassing clouds.5 mph66%30.01 "Hg5 mi
8:00 AM84 °FSunny.3 mph55%29.98 "Hg10 mi
7:00 AM81 °FSunny.5 mph62%29.95 "Hg10 mi
6:00 AM79 °FClear.7 mph61%29.92 "Hg5 mi
5:00 AM79 °FHaze.6 mph65%29.92 "Hg3 mi
4:00 AM79 °FHaze.2 mph65%29.89 "Hg4 mi
3:00 AM81 °FHaze.3 mph66%29.92 "Hg3 mi
2:00 AM81 °FClear.5 mph70%29.92 "Hg4 mi
Weather by CustomWeather, © 2014

See weather overviewHow to use our weather pages